Location: Arrington
(35.8681°N, 86.7092°W)
Time: 07:16:06
(UTC+00:00)

CSL-04 Rocket - Pass Details

Date: 23 November 2019
Orbit: 806 x 860 km, 99.0° (Epoch: 15 December)

Event Time Altitude Azimuth Distance (km) Brightness Sun altitude
Rises 00:50:51 0° 180° (S) 3,347 6.9 -27.1°
Reaches altitude 10° 00:53:16 10° 186° (S) 2,410 6.2 -27.6°
Maximum altitude 00:58:24 48° 260° (W) 1,055 4.5 -28.6°
Drops below altitude 10° 01:03:31 10° 334° (NNW) 2,399 6.3 -29.7°
Sets 01:05:56 0° 340° (NNW) 3,331 7.0 -30.2°
